Content
SEND FEEDBACK

Daily
Averages
Monthly
Summary
United States of America

DUBLIN, TEXAS


Home > North America > United States > Texas
Elevation: 1489 feet     Latitude: 32 06N     Longitude: 098 20W

WEATHER
 
SELECT A DAY
Number of Records: 282,524;   Date Range: 4/2/03 - 7/29/14
 
SHARE

PRINT THIS DATA

[ ← Previous Day ]
WEATHER ALMANAC - FEBRUARY 13, 2013
[ Next Day → ]
[ °C ]   °F
Weather ElementAverageHighLow
Temperature44.4 °F59 °F (3:55 pm)32 °F (6:55 am)
Dewpoint29.8 °F33.8 °F (12:35 am)21.2 °F (2:35 pm)
Humidity62.3 %100 % (6:55 am)25 % (2:35 pm)
Barometer30.10 in30.17 in (9:35 am)30.04 in (5:15 pm)
Wind Speed4.4 mph18.4 mph (2:35 am)
Wind Gust23 mph (1:15 am)
Weather ElementAverage
Visibility10 mi
Wind DirectionS (183 °)

Weather ElementTotal
Precipitation---
Heating Degree Days19.5 (Base 65)
Averaged from 71 records on February 13, 2013
WEATHER CONDITIONS BREAKOUT
WIND DIRECTION BREAKOUT
WEATHER BY HOUR - FEBRUARY 13, 2013
[ °C ]   °F
Local TimeTemperatureDewpointHumidityBarometerVisibilityWind DirectionWind SpeedGust SpeedPrecipitationEventsConditions
12:35 AM37.4 °F33.8 °F87 %30.11 in10.0 miNW (320°)9.2 mphOvercast
12:55 AM37.4 °F32.0 °F81 %30.11 in10.0 miNNW (330°)11.5 mphOvercast
1:15 AM37.4 °F33.8 °F87 %30.11 in10.0 miNW (310°)10.4 mph23.0 mphOvercast
1:35 AM37.4 °F32.0 °F81 %30.11 in10.0 miNW (320°)13.8 mph20.7 mphOvercast
1:55 AM37.4 °F32.0 °F81 %30.11 in10.0 miNW (310°)16.1 mph23.0 mphOvercast
2:15 AM37.4 °F32.0 °F81 %30.11 in10.0 miNW (320°)13.8 mph21.9 mphOvercast
2:35 AM37.4 °F32.0 °F81 %30.11 in10.0 miNW (320°)18.4 mph23.0 mphOvercast
2:55 AM37.4 °F32.0 °F81 %30.11 in10.0 miNNW (330°)12.7 mphOvercast
3:15 AM37.4 °F32.0 °F81 %30.11 in10.0 miNNW (330°)11.5 mph18.4 mphOvercast
3:35 AM37.4 °F32.0 °F81 %30.11 in10.0 miNW (320°)12.7 mphScattered Clouds
3:55 AM35.6 °F32.0 °F87 %30.11 in10.0 miNW (320°)9.2 mphClear
4:15 AM35.6 °F32.0 °F87 %30.11 in10.0 miNNW (330°)8.1 mphClear
4:35 AM35.6 °F32.0 °F87 %30.11 in10.0 miNW (320°)4.6 mphClear
4:55 AM33.8 °F32.0 °F93 %30.12 in10.0 miCalmClear
5:15 AM33.8 °F32.0 °F93 %30.11 in10.0 miNW (310°)3.5 mphClear
5:35 AM33.8 °F32.0 °F93 %30.12 in10.0 miCalmClear
5:55 AM33.8 °F32.0 °F93 %30.12 in10.0 miNW (310°)3.5 mphClear
6:15 AM33.8 °F32.0 °F93 %30.12 in10.0 miNW (310°)3.5 mphClear
6:35 AM33.8 °F32.0 °F93 %30.12 in10.0 miWNW (290°)3.5 mphClear
6:55 AM32.0 °F32.0 °F100 %30.13 in10.0 miWNW (300°)3.5 mphClear
7:15 AM32.0 °F32.0 °F100 %30.14 in10.0 miWNW (300°)3.5 mphClear
7:35 AM32.0 °F32.0 °F100 %30.14 in10.0 miWNW (300°)3.5 mphClear
7:55 AM32.0 °F32.0 °F100 %30.14 in10.0 miWNW (300°)3.5 mphClear
8:15 AM33.8 °F32.0 °F93 %30.15 in10.0 miWNW (300°)3.5 mphClear
8:35 AM35.6 °F32.0 °F87 %30.16 in10.0 miWNW (300°)5.8 mphClear
8:55 AM35.6 °F32.0 °F87 %30.16 in10.0 miNW (310°)4.6 mphClear
9:15 AM37.4 °F32.0 °F81 %30.16 in10.0 miNNW (330°)4.6 mphClear
9:35 AM41.0 °F32.0 °F70 %30.17 in10.0 miNW (320°)8.1 mphClear
9:55 AM42.8 °F32.0 °F66 %30.17 in10.0 miWNW (300°)8.1 mphClear
10:15 AM44.6 °F32.0 °F61 %30.17 in10.0 miNNW (330°)8.1 mphClear
10:35 AM44.6 °F32.0 °F61 %30.17 in10.0 miNW (320°)6.9 mphClear
10:55 AM46.4 °F32.0 °F57 %30.17 in10.0 miWNW (300°)6.9 mphClear
11:15 AM48.2 °F32.0 °F54 %30.16 in10.0 miNW (320°)4.6 mphClear
11:35 AM50.0 °F32.0 °F50 %30.15 in10.0 miCalmClear
11:55 AM50.0 °F32.0 °F50 %30.15 in10.0 miNW (310°)4.6 mphClear
12:15 PM51.8 °F32.0 °F47 %30.14 in10.0 miWNW (290°)3.5 mphClear
12:35 PM51.8 °F30.2 °F44 %30.13 in10.0 miWNW (290°)5.8 mphClear
12:55 PM53.6 °F30.2 °F41 %30.12 in10.0 miCalmClear
1:15 PM53.6 °F28.4 °F38 %30.11 in10.0 miNNW (340°)3.5 mphClear
1:35 PM55.4 °F26.6 °F33 %30.09 in10.0 miCalmClear
1:55 PM55.4 °F24.8 °F31 %30.09 in10.0 miCalmClear
2:15 PM55.4 °F26.6 °F33 %30.08 in10.0 miNorth (350°)5.8 mphClear
2:35 PM57.2 °F21.2 °F25 %30.07 in10.0 miWNW (300°)5.8 mphClear
2:55 PM57.2 °F23.0 °F27 %30.06 in10.0 miNE (40°)3.5 mphClear
3:15 PM57.2 °F23.0 °F27 %30.06 in10.0 miSSW (210°)5.8 mphClear
3:35 PM57.2 °F23.0 °F27 %30.06 in10.0 miCalmClear
3:55 PM59.0 °F24.8 °F27 %30.05 in10.0 miNorth (10°)5.8 mphClear
4:15 PM59.0 °F23.0 °F25 %30.05 in10.0 miSSE (160°)3.5 mphClear
4:35 PM59.0 °F23.0 °F25 %30.05 in10.0 miCalmClear
4:55 PM59.0 °F23.0 °F25 %30.05 in10.0 miCalmClear
5:15 PM57.2 °F23.0 °F27 %30.04 in10.0 miCalmClear
5:35 PM57.2 °F23.0 °F27 %30.04 in10.0 miCalmClear
5:55 PM55.4 °F24.8 °F31 %30.04 in10.0 miCalmClear
6:15 PM53.6 °F30.2 °F41 %30.04 in10.0 miCalmClear
6:35 PM53.6 °F28.4 °F38 %30.04 in10.0 miCalmClear
6:55 PM51.8 °F28.4 °F41 %30.05 in10.0 miSE (140°)3.5 mphClear
7:15 PM50.0 °F28.4 °F43 %30.05 in10.0 miCalmClear
7:35 PM50.0 °F28.4 °F43 %30.06 in10.0 miCalmClear
7:55 PM46.4 °F30.2 °F53 %30.06 in10.0 miCalmClear
8:15 PM46.4 °F32.0 °F57 %30.06 in10.0 miCalmClear
8:35 PM44.6 °F30.2 °F57 %30.06 in10.0 miCalmClear
8:55 PM44.6 °F30.2 °F57 %30.06 in10.0 miCalmClear
9:15 PM44.6 °F30.2 °F57 %30.06 in10.0 miCalmClear
9:35 PM44.6 °F30.2 °F57 %30.07 in10.0 miCalmClear
9:55 PM42.8 °F28.4 °F57 %30.07 in10.0 miCalmClear
10:15 PM42.8 °F30.2 °F61 %30.08 in10.0 miSSE (160°)3.5 mphClear
10:35 PM41.0 °F30.2 °F65 %30.08 in10.0 miSSE (160°)3.5 mphClear
10:55 PM41.0 °F30.2 °F65 %30.08 in10.0 miSSE (150°)3.5 mphClear
11:15 PM41.0 °F30.2 °F65 %30.07 in10.0 miSouth (170°)4.6 mphClear
11:35 PM39.2 °F32.0 °F75 %30.07 in10.0 miSouth (180°)3.5 mphClear
11:55 PM39.2 °F32.0 °F75 %30.08 in10.0 miCalmClear
Hourly data recorded from KSEP, located miles away from Dublin, Texas







STORIES FROM OUR PARTNERS